COSMOS 2251 DEB, 37089

Orbit data source: Space-Track

COSMOS 2251 DEB, 37089 is space debris in LEO originally from a launch on Wed, 16 Jun 1993 UTC launched from the Plesetsk Missile And Space Complex (PKMTR). The debris from Iridium 33, an American commercial communications satellite, has been tracked extensively since its accidental collision with the defunct Russian satellite Cosmos 2251 in 2009. This event, occurring at high speed in low Earth orbit (LEO), generated thousands of pieces of space debris, significantly increasing the risk of further collisions. The Iridium 33 debris cloud has impacted space traffic management and orbital debris mitigation strategies, making it a subject of ongoing study in space situational awareness.

Loading next visibility...
Identifier
37089, 1993-036BFK
Orbit
LEO
Country
Flag of CISCIS
Related business
Manufacturer
Unknown
Mission
Spacecraft
Bus & Motor
Unknown
Mass
Unknown
Launch date (UTC)
1993-06-16 (33 years ago)
Launch vehicle
Unknown
Launch site
Plesetsk Missile And Space Complex (PKMTR)
Object type
Payload
Rocket body
Debris
Shape & HBR
Unknown shape, 0.1 m
Radar Cross Section
Small (<0.1 m²)

Expand to show TLE details & history
Last TLE update: 4 days ago

TLE from 4 days ago
0 COSMOS 2251 DEB
1 37089U 93036BFK 26203.95527374  .00009608  00000-0  19199-2 0  9997
2 37089  74.0348  84.8076 0130256 129.1507 232.1319 14.56683301693422
Epoch: 2026-07-22T22:55Z
TLE epoch observation values (Epoch: 2026-07-22T22:55:35.651Z)
Latitude
-0.00001°
Longitude
160.20586°
Altitude
763.917 km
Speed
7.442 km/s
True Right ascension
05h 39m 13s
True Declination
0° 00' 00"
Sunlit
Object was in daylight at epoch
Visualization orbit readout
Latitude
Unknown
Longitude
Unknown
Altitude
Unknown
Speed
Unknown
Apparent Right ascension
Unknown
Apparent Declination
Unknown
Sunlit
N/A
Visualization observer readout
Local Sidereal Time
06:33:13
Azimuth
Unknown
Elevation
Unknown
Doppler factor
Unknown
Orbital elements
Apogee altitude
793.721 km
Perigee altitude
609.288 km
Semi-major axis
7,079.641 km
Eccentricity
0.01303
Inclination
74.0348°
RAAN
84.8076°
Arg. of periapsis
129.1507°
True anomaly
230.96533°
Mean anomaly
232.1319°
Eccentric anomaly
231.54745°
Mean motion
3.64356 °/min
Orbital period
98.8 mins
BSTAR
0.0019199
Loading maneuver chart data...
Computing Atmospheric mass density...

Documentation

Showing up to 5 results
|